User: anonymous   Login
Location: Unspecified
(0.0000°N, 0.0000°E)
Time: 12:15:13
(UTC+00:00)
Language:

Tiros 10 - Orbit

View from above orbital plane
View from above orbital plane
View from above satellite
View from above satellite

Ground track
Ground track

The orbit data is extracted from the following two-line orbital elements,

1 01430U 65051A   16207.06365488  .00000010  00000-0  15761-4 0  9996
2 01430  98.1027  11.9739 0056939 164.3548 195.9418 14.40153178676011
Epoch (UTC): 25 July 2016 01:31:39
Eccentricity: 0.0056939
inclination: 98.1027°
perigee height: 717 km
apogee height: 798 km
right ascension of ascending node: 11.9739°
argument of perigee: 164.3548°
revolutions per day: 14.40153178
mean anomaly at epoch: 195.9418°
orbit number at epoch: 67601

The dashed part of the orbit path shows where the satellite is in the earth's shadow,  

DLR